Weather History for Sacramento, CA

Change the Weather History Date:

Wednesday, January 16, 2013

  Actual Average Record
Temperature  
Mean Temperature 42 °F -  
Max Temperature 57 °F 54 °F 69 °F (2014)
Min Temperature 27 °F 39 °F 23 °F (2007)
Degree Days  
Heating Degree Days 23    
Cooling Degree Days 0    
Moisture  
Dew Point 29 °F    
Average Humidity 65    
Maximum Humidity 92    
Minimum Humidity 38    
Precipitation  
Precipitation 0.00 in 0.12 in 1.31 in (1973)
Month to date precipitation 0.78 1.89  
Year to date precipitation 0.78 1.89  
Since 1 July precipitation 12.07 8.51  
Sea Level Pressure  
Sea Level Pressure 30.40 in    
Wind  
Wind Speed 0 mph (West)    
Max Wind Speed 6 mph    
Max Gust Speed 10 mph    
Visibility 5 miles    
Events      
T = Trace of Precipitation, MM = Missing Value Source: NWS Daily Summary

Daily Weather History Graph

Daily Weather History Graph

Search for Another Location

Airport:

Trip Planner

Search our weather history database for the weather conditions in past years. The results will help you decide how hot, cold, wet, or windy it might be!

Date:

Astronomy

Jan. 16, 2013 Rise Set
Actual Time 7:21 AM PST 5:10 PM PST
Civil Twilight 6:52 AM PST 5:39 PM PST
Nautical Twilight 6:20 AM PST 6:12 PM PST
Astronomical Twilight 5:48 AM PST 6:43 PM PST
Moon 10:05 AM PST (1/16) 11:02 PM PST (1/16)
Length of Visible Light 10h 46m
Length of Day
9h 49m
Waxing Crescent, 29% of the Moon is Illuminated
Jan 16
Waxing Crescent
Jan 18
First Quarter
Jan 26
Full
Feb 3
Last Quarter
Feb 9
New

Hourly Weather History & Observations

Time (PST) Temp. Dew Point Humidity Pressure Visibility Wind Dir Wind Speed Gust Speed Precip Events Conditions
12:53 AM 32.0 °F 28.0 °F 85% 30.45 in 4.0 mi Calm Calm - N/A   Clear
1:53 AM 30.0 °F 26.1 °F 85% 30.46 in 4.0 mi Calm Calm - N/A   Clear
2:50 AM 28.4 °F 26.6 °F 93% 30.47 in 2.5 mi Calm Calm - N/A   Clear
2:53 AM 28.9 °F 26.1 °F 89% 30.46 in 2.5 mi Calm Calm - N/A   Clear
3:07 AM 30.2 °F 26.6 °F 86% 30.46 in 4.0 mi Calm Calm - N/A   Clear
3:27 AM 30.2 °F 26.6 °F 86% 30.45 in 2.0 mi Calm Calm - N/A   Clear
3:53 AM 30.0 °F 27.0 °F 88% 30.45 in 2.5 mi Calm Calm - N/A   Clear
4:05 AM 28.4 °F 26.6 °F 93% 30.46 in 0.8 mi Calm Calm - N/A   Clear
4:19 AM 28.4 °F 26.6 °F 93% 30.45 in 1.5 mi Calm Calm - N/A   Clear
4:30 AM 28.4 °F 26.6 °F 93% 30.45 in 2.5 mi Calm Calm - N/A   Clear
4:45 AM 28.4 °F 26.6 °F 93% 30.45 in 1.5 mi Calm Calm - N/A   Clear
4:53 AM 28.9 °F 26.1 °F 89% 30.45 in 1.8 mi Calm Calm - N/A   Clear
5:03 AM 28.4 °F 26.6 °F 93% 30.44 in 2.0 mi Calm Calm - N/A   Clear
5:29 AM 28.4 °F 24.8 °F 86% 30.44 in 3.0 mi Calm Calm - N/A   Clear
5:40 AM 28.4 °F 26.6 °F 93% 30.44 in 2.0 mi Calm Calm - N/A   Clear
5:53 AM 28.9 °F 26.1 °F 89% 30.43 in 3.0 mi Calm Calm - N/A   Clear
6:53 AM 28.0 °F 24.1 °F 85% 30.43 in 5.0 mi Calm Calm - N/A   Clear
7:53 AM 28.9 °F 26.1 °F 89% 30.45 in 3.0 mi Calm Calm - N/A   Clear
8:53 AM 35.1 °F 30.0 °F 82% 30.47 in 3.0 mi Calm Calm - N/A   Haze
9:53 AM 42.1 °F 33.1 °F 70% 30.46 in 7.0 mi Calm Calm - N/A   Clear
10:53 AM 46.9 °F 34.0 °F 61% 30.44 in 8.0 mi Calm Calm - N/A   Clear
11:53 AM 50.0 °F 33.8 °F 54% 30.40 in 8.0 mi NW 3.5 mph - N/A   Clear
12:53 PM 54.0 °F 33.1 °F 45% 30.37 in 8.0 mi Calm Calm - N/A   Clear
1:53 PM 54.0 °F 35.1 °F 49% 30.34 in 7.0 mi WNW 4.6 mph - N/A   Clear
2:53 PM 55.0 °F 30.0 °F 38% 30.32 in 10.0 mi Calm Calm - N/A   Clear
3:53 PM 55.9 °F 27.0 °F 33% 30.32 in 10.0 mi Calm Calm - N/A   Clear
4:53 PM 53.1 °F 28.9 °F 40% 30.31 in 10.0 mi South 3.5 mph - N/A   Clear
5:53 PM 46.0 °F 30.9 °F 56% 30.31 in 10.0 mi Calm Calm - N/A   Clear
6:53 PM 43.0 °F 32.0 °F 65% 30.32 in 10.0 mi Calm Calm - N/A   Clear
7:53 PM 41.0 °F 30.9 °F 67% 30.31 in 8.0 mi Calm Calm - N/A   Clear
8:53 PM 37.9 °F 30.0 °F 73% 30.30 in 8.0 mi Calm Calm - N/A   Clear
9:53 PM 37.0 °F 30.9 °F 79% 30.31 in 7.0 mi Calm Calm - N/A   Clear
10:53 PM 36.0 °F 30.9 °F 82% 30.30 in 7.0 mi Calm Calm - N/A   Clear
11:53 PM 35.1 °F 30.0 °F 82% 30.30 in 6.0 mi Calm Calm - N/A   Haze